Date,TemperatureHighF,TemperatureAvgF,TemperatureLowF,DewpointHighF,DewpointAvgF,DewpointLowF,HumidityHigh,HumidityAvg,HumidityLow,PressureMaxIn,PressureMinIn,WindSpeedMaxMPH,WindSpeedAvgMPH,GustSpeedMaxMPH,PrecipitationSumIn
2013-2-1,32.0,26.5,20.3,19.3,10.6,4.4,71,51,38,30.09,29.58,20,4,22,0.63
2013-2-2,29.1,22.9,12.5,13.1,6.8,2.3,71,50,39,30.26,30.05,10,2,13,0.00
2013-2-3,26.1,23.2,17.2,21.4,18.6,13.1,91,82,60,30.07,29.74,8,1,9,0.00
2013-2-4,29.0,22.3,16.1,19.9,9.8,3.8,91,61,38,29.94,29.73,22,3,22,0.00
2013-2-5,30.5,23.4,17.2,19.3,11.0,4.2,82,59,46,30.04,29.93,8,1,8,0.00
2013-2-6,37.1,28.1,21.1,27.5,17.8,5.5,91,67,42,30.31,29.93,13,2,15,0.02
2013-2-7,27.4,21.9,13.9,5.7,1.9,-1.9,64,42,32,30.55,30.31,12,2,14,0.00
2013-2-8,23.6,20.1,16.7,17.4,14.2,0.5,92,79,37,30.54,29.72,29,4,32,0.00
2013-2-9,21.7,17.7,14.5,18.2,10.8,0.9,94,75,54,30.25,29.66,24,5,24,0.00
2013-2-10,39.2,22.2,8.4,16.7,4.6,-2.5,76,49,25,30.41,30.23,11,1,13,0.08
2013-2-11,31.5,24.1,11.2,31.4,21.1,5.1,100,88,68,30.36,29.61,4,0,5,0.00
2013-2-12,43.0,35.9,29.0,34.5,30.8,27.8,100,83,64,29.91,29.58,12,2,17,0.23
2013-2-13,41.8,32.9,23.0,28.6,25.3,20.5,94,74,55,29.92,29.73,6,1,9,0.01
2013-2-14,44.6,32.3,22.3,29.4,24.0,20.1,93,73,47,30.02,29.72,9,1,12,0.06
2013-2-15,52.7,34.9,19.4,36.0,27.8,17.5,100,78,48,30.06,29.82,14,2,18,0.57
2013-2-16,39.0,32.9,26.3,32.0,26.0,15.2,98,77,53,30.02,29.73,12,1,12,0.78
2013-2-17,27.4,20.7,15.3,17.7,7.0,-0.5,85,56,42,29.79,29.36,21,5,28,0.00
2013-2-18,30.1,21.2,13.2,4.5,0.4,-1.9,53,41,25,30.18,29.64,20,4,22,2.31
2013-2-19,45.6,33.5,17.1,40.9,22.6,2.8,100,66,42,30.26,29.58,10,1,11,1.26
2013-2-20,35.7,31.1,25.3,35.6,21.3,13.1,100,68,47,29.81,29.53,20,4,27,3.63
2013-2-21,31.7,25.8,22.1,16.0,13.5,9.7,70,59,48,30.26,29.73,13,3,22,0.38
2013-2-22,41.2,30.4,17.6,25.7,20.4,14.1,89,67,46,30.45,30.21,10,1,12,2.40
2013-2-23,37.8,31.5,-6.0,32.8,28.6,-6.0,100,83,50,30.42,29.93,8,1,9,2.25
2013-2-24,33.4,32.4,30.6,33.3,32.4,30.6,100,100,100,30.03,29.73,10,1,12,1.75
2013-2-25,36.9,32.7,28.2,35.5,32.2,28.2,100,98,90,30.28,29.92,6,0,6,1.89
2013-2-26,41.0,31.5,28.5,37.2,31.1,28.5,100,84,50,30.38,30.19,6,1,11,1.73
2013-2-27,40.1,35.9,33.2,40.1,35.3,30.2,100,98,84,30.20,29.58,24,3,24,0.89
2013-2-28,43.9,36.8,32.3,38.4,34.8,32.3,100,93,77,29.71,29.54,9,1,26,0.01